Amateur Radio Satellites - All Passes

Search period start: 25 May 2013 22:45
Search period end: 26 May 2013 22:45
Location: Hamilton, 43.2500°N, 79.8330°W

Satellite Date Start Highest point End Downlink Frequencies (MHz)
Time Altitude Azimuth
OPAL 25 May 22:46:32 22:51:44 88° 73° (ENE) 22:56:55 ?
KITSAT 1 25 May 22:53:36 23:01:29 62° 115° (ESE) 23:09:27 435.175 FM
Oscar 11 25 May 23:42:40 23:44:42 13° 270° (W) 23:46:44 145.825 FM, Beacon 2401.500 USB
HO-68 26 May 00:00:04 00:02:48 12° 274° (W) 00:05:33 435.675 MHz FM
JAS-2 26 May 00:02:07 00:07:26 20° 273° (W) 00:12:48 435.800 - 435.900 CW/SSB, 435.910 FM
OPAL 26 May 00:29:31 00:31:16 12° 269° (W) 00:33:01 ?
RS-15 26 May 00:44:48 00:55:53 60° 47° (NE) 01:06:36 29.354 - 29.394 USB, Beacon 29.352 USB
KITSAT 1 26 May 00:49:59 00:57:20 37° 317° (NW) 01:04:46 435.175 FM
MaSat-1 26 May 01:20:28 01:27:05 48° 111° (ESE) 01:32:33 437.345 MHz
ITAMSAT 1 26 May 01:54:42 01:55:12 10° 87° (E) 01:55:42 435.822 SSB
AO-40 26 May 02:04:36 03:39:41 33° 226° (SW) 07:58:35 Beacon 2401.320
Oscar 19 26 May 02:27:52 02:32:14 27° 95° (E) 02:36:34 437.125 CW, 437.150 USB
ISS 26 May 02:29:18 02:32:35 75° 145° (SE) 02:35:55 145.800 FM
Uribyol 2 26 May 02:31:38 02:35:59 26° 94° (E) 02:40:18 436.500 FM
KITSAT 1 26 May 02:51:02 02:55:33 16° 345° (NNW) 03:00:05 435.175 FM
RS-15 26 May 02:57:46 03:07:50 43° 251° (WSW) 03:17:44 29.354 - 29.394 USB, Beacon 29.352 USB
MaSat-1 26 May 03:03:22 03:09:17 34° 304° (NW) 03:14:12 437.345 MHz
Oscar 16 26 May 03:07:21 03:12:33 74° 103° (ESE) 03:17:41 437.025 USB, Beacon 2401.1428
AO-27 26 May 03:24:27 03:29:42 77° 103° (ESE) 03:34:56 436.795 MHz FM
ITAMSAT 1 26 May 03:30:13 03:35:29 84° 104° (ESE) 03:40:43 435.822 SSB
Uosat F 26 May 03:40:06 03:43:06 16° 91° (E) 03:46:05 435.120 FM
AO-Echo 26 May 03:42:56 03:47:25 39° 98° (E) 03:51:59 ?
TMSAT-1 26 May 03:48:13 03:48:51 10° 86° (E) 03:49:28 436.925 FM
ISS 26 May 04:06:43 04:09:34 26° 344° (NNW) 04:12:27 145.800 FM
Oscar 19 26 May 04:06:55 04:11:41 39° 292° (WNW) 04:16:24 437.125 CW, 437.150 USB
Gurwin Techsat 1B 26 May 04:08:59 04:13:25 26° 94° (E) 04:17:48 435.225 FM
Uribyol 2 26 May 04:10:43 04:15:37 42° 291° (WNW) 04:20:30 436.500 FM
Saudisat 1A 26 May 04:36:40 04:40:03 21° 112° (ESE) 04:43:28 436.775 MHz
Oscar 16 26 May 04:48:15 04:51:18 16° 301° (WNW) 04:54:20 437.025 USB, Beacon 2401.1428
KITSAT 1 26 May 04:50:22 04:55:01 16° 16° (NNE) 04:59:40 435.175 FM
AO-27 26 May 05:05:34 05:08:36 16° 301° (WNW) 05:11:38 436.795 MHz FM
ITAMSAT 1 26 May 05:11:33 05:14:17 15° 302° (WNW) 05:17:01 435.822 SSB
Uosat F 26 May 05:17:22 05:22:21 64° 288° (WNW) 05:27:19 435.120 FM
AO-Echo 26 May 05:22:13 05:26:02 24° 294° (WNW) 05:29:55 ?
TMSAT-1 26 May 05:24:13 05:29:34 83° 104° (ESE) 05:34:53 436.925 FM
ISS 26 May 05:44:34 05:47:04 19° 4° (N) 05:49:35 145.800 FM
Gurwin Techsat 1B 26 May 05:48:33 05:53:32 42° 291° (WNW) 05:58:30 435.225 FM
AO-7 26 May 05:54:38 06:02:40 48° 100° (E) 06:10:38 29.400 - 29.500 MHz
PCSat 26 May 06:04:37 06:07:56 17° 104° (ESE) 06:11:15 145.825 MHz
STRAND 1 26 May 06:06:24 06:11:00 35° 67° (ENE) 06:15:37 ?
Oscar 10/S400 26 May 06:14:38 09:28:12 55° 238° (WSW) 16:29:59 145.825 - 145.975 CW/USB, Beacon 145.810 USB
Saudisat 1A 26 May 06:14:58 06:19:25 50° 309° (NW) 06:23:55 436.775 MHz
Sapphire 26 May 06:36:10 06:40:48 30° 109° (ESE) 06:45:27 437.095 MHz 1200 baud AX-25 AFSK
KITSAT 1 26 May 06:45:38 06:53:09 39° 44° (NE) 07:00:38 435.175 FM
TMSAT-1 26 May 07:05:57 07:08:48 15° 302° (WNW) 07:11:39 436.925 FM
ISS 26 May 07:21:15 07:24:26 38° 24° (NNE) 07:27:36 145.800 FM
Hamsat 26 May 07:43:29 07:47:14 27° 95° (E) 07:50:59 145.90 MHz
PCSat 26 May 07:45:19 07:50:43 73° 302° (WNW) 07:56:10 145.825 MHz
STRAND 1 26 May 07:45:49 07:50:13 29° 264° (W) 07:54:40 ?
AO-7 26 May 07:47:39 07:55:20 43° 300° (WNW) 08:03:01 29.400 - 29.500 MHz
Saudisat 1A 26 May 07:58:52 08:00:14 11° 330° (NNW) 08:01:35 436.775 MHz
Sapphire 26 May 08:18:55 08:24:03 43° 308° (NW) 08:29:13 437.095 MHz 1200 baud AX-25 AFSK
SO-50 26 May 08:28:38 08:33:24 67° 121° (ESE) 08:38:06 436.795 FM
KITSAT 1 26 May 08:40:59 08:48:56 59° 245° (WSW) 08:56:50 435.175 FM
ISS 26 May 08:58:03 09:01:07 34° 221° (SW) 09:04:11 145.800 FM
JAS-1B 26 May 09:08:26 09:14:24 71° 103° (ESE) 09:20:02 435.800 - 435.900 CW/SSB
SO-67 26 May 09:15:32 09:19:08 76° 284° (WNW) 09:22:42 435.3500 MHz FM
Hamsat 26 May 09:19:30 09:23:16 29° 291° (WNW) 09:27:03 145.90 MHz
JAS-2 26 May 09:27:30 09:29:08 11° 81° (E) 09:30:44 435.800 - 435.900 CW/SSB, 435.910 FM
PCSat 26 May 09:31:59 09:35:09 15° 323° (NW) 09:38:19 145.825 MHz
HO-68 26 May 09:34:38 09:39:38 20° 91° (E) 09:44:37 435.675 MHz FM
AO-7 26 May 09:44:24 09:45:55 11° 322° (NW) 09:47:25 29.400 - 29.500 MHz
MaSat-1 26 May 10:05:55 10:07:38 13° 45° (NE) 10:09:12 437.345 MHz
Sapphire 26 May 10:08:04 10:09:00 10° 330° (NNW) 10:09:56 437.095 MHz 1200 baud AX-25 AFSK
SO-50 26 May 10:10:52 10:14:28 21° 320° (NW) 10:18:02 436.795 FM
OPAL 26 May 10:56:34 11:00:13 20° 95° (E) 11:03:49 ?
JAS-1B 26 May 11:00:36 11:04:21 18° 304° (NW) 11:07:58 435.800 - 435.900 CW/SSB
UOSAT-12 26 May 11:07:36 11:12:01 56° 120° (ESE) 11:16:29 437.025 FM, 437.400 FM
JAS-2 26 May 11:08:48 11:15:37 76° 102° (ESE) 11:21:32 435.800 - 435.900 CW/SSB, 435.910 FM
HO-68 26 May 11:20:52 11:28:03 79° 289° (WNW) 11:35:13 435.675 MHz FM
Oscar 11 26 May 11:26:49 11:31:12 78° 284° (WNW) 11:35:34 145.825 FM, Beacon 2401.500 USB
MaSat-1 26 May 11:47:07 11:49:51 27° 252° (WSW) 11:52:12 437.345 MHz
OPAL 26 May 12:34:34 12:39:24 50° 292° (WNW) 12:44:09 ?
Oscar 16 26 May 12:48:38 12:51:51 17° 60° (ENE) 12:55:04 437.025 USB, Beacon 2401.1428
UOSAT-12 26 May 12:48:59 12:52:32 22° 319° (NW) 12:56:06 437.025 FM, 437.400 FM
JAS-2 26 May 12:55:01 12:59:46 21° 304° (NW) 13:04:11 435.800 - 435.900 CW/SSB, 435.910 FM
Saudisat 1A 26 May 13:02:07 13:06:00 26° 43° (NE) 13:09:49 436.775 MHz
AO-27 26 May 13:06:38 13:10:02 18° 60° (ENE) 13:13:28 436.795 MHz FM
HO-68 26 May 13:10:20 13:14:40 17° 309° (NW) 13:18:59 435.675 MHz FM
ITAMSAT 1 26 May 13:12:01 13:15:38 20° 61° (ENE) 13:19:16 435.822 SSB
Oscar 19 26 May 13:45:39 13:50:33 44° 69° (ENE) 13:55:29 437.125 CW, 437.150 USB
Uribyol 2 26 May 13:50:31 13:55:23 43° 69° (ENE) 14:00:18 436.500 FM
Oscar 16 26 May 14:25:27 14:30:38 71° 258° (WSW) 14:35:52 437.025 USB, Beacon 2401.1428
Saudisat 1A 26 May 14:41:33 14:45:52 43° 242° (WSW) 14:50:06 436.775 MHz
AO-27 26 May 14:43:55 14:49:03 65° 258° (WSW) 14:54:14 436.795 MHz FM
ITAMSAT 1 26 May 14:49:35 14:54:41 59° 259° (W) 14:59:50 435.822 SSB
PCSat 26 May 14:49:41 14:53:49 21° 42° (NE) 14:57:56 145.825 MHz
Uosat F 26 May 14:54:15 14:58:18 25° 64° (ENE) 15:02:21 435.120 FM
AO-Echo 26 May 14:57:11 15:01:52 57° 73° (ENE) 15:06:30 ?
AO-7 26 May 15:06:25 15:11:22 18° 46° (NE) 15:16:19 29.400 - 29.500 MHz
TMSAT-1 26 May 15:08:18 15:12:04 20° 62° (ENE) 15:15:50 436.925 FM
RS-15 26 May 15:10:21 15:20:19 32° 105° (ESE) 15:29:57 29.354 - 29.394 USB, Beacon 29.352 USB
SO-50 26 May 15:20:36 15:23:11 15° 34° (NE) 15:25:44 436.795 FM
Sapphire 26 May 15:22:30 15:27:24 33° 49° (NE) 15:32:16 437.095 MHz 1200 baud AX-25 AFSK
Oscar 19 26 May 15:25:55 15:30:05 24° 266° (W) 15:34:17 437.125 CW, 437.150 USB
Uribyol 2 26 May 15:30:51 15:35:03 25° 266° (W) 15:39:17 436.500 FM
Gurwin Techsat 1B 26 May 15:31:02 15:36:03 45° 69° (ENE) 15:41:05 435.225 FM
Uosat F 26 May 16:32:11 16:36:53 41° 261° (W) 16:41:37 435.120 FM
PCSat 26 May 16:32:24 16:37:50 73° 242° (WSW) 16:43:13 145.825 MHz
AO-Echo 26 May 16:38:08 16:41:02 16° 269° (W) 16:43:55 ?
TMSAT-1 26 May 16:46:20 16:51:32 59° 259° (W) 16:56:48 436.925 FM
AO-7 26 May 16:54:29 17:02:41 69° 67° (ENE) 17:10:57 29.400 - 29.500 MHz
SO-50 26 May 17:00:00 17:04:35 79° 55° (NE) 17:09:04 436.795 FM
Sapphire 26 May 17:05:51 17:10:55 41° 248° (WSW) 17:15:58 437.095 MHz 1200 baud AX-25 AFSK
Gurwin Techsat 1B 26 May 17:11:57 17:16:13 25° 267° (W) 17:20:31 435.225 FM
RS-15 26 May 17:19:41 17:31:44 78° 306° (NW) 17:43:17 29.354 - 29.394 USB, Beacon 29.352 USB
UOSAT-12 26 May 17:57:36 17:59:49 13° 33° (NNE) 18:02:02 437.025 FM, 437.400 FM
JAS-1B 26 May 18:06:27 18:11:06 17° 55° (NE) 18:15:23 435.800 - 435.900 CW/SSB
STRAND 1 26 May 18:19:06 18:19:45 10° 87° (E) 18:20:24 ?
Hamsat 26 May 18:39:06 18:42:26 23° 67° (ENE) 18:45:48 145.90 MHz
SO-50 26 May 18:42:52 18:44:31 12° 252° (WSW) 18:46:10 436.795 FM
AO-7 26 May 18:49:19 18:56:05 27° 266° (W) 19:02:55 29.400 - 29.500 MHz
RS-15 26 May 19:36:09 19:46:18 32° 334° (NNW) 19:56:06 29.354 - 29.394 USB, Beacon 29.352 USB
UOSAT-12 26 May 19:36:17 19:40:53 66° 53° (NE) 19:45:28 437.025 FM, 437.400 FM
JAS-1B 26 May 19:51:51 20:00:44 72° 72° (ENE) 20:08:12 435.800 - 435.900 CW/SSB
SO-67 26 May 19:52:19 19:55:42 43° 73° (ENE) 19:59:07 435.3500 MHz FM
STRAND 1 26 May 19:54:30 19:59:41 86° 105° (ESE) 20:04:51 ?
HO-68 26 May 20:05:38 20:10:19 19° 53° (NE) 20:15:01 435.675 MHz FM
Hamsat 26 May 20:14:32 20:18:21 32° 264° (W) 20:22:12 145.90 MHz
Oscar 11 26 May 20:50:59 20:51:45 10° 59° (ENE) 20:52:32 145.825 FM, Beacon 2401.500 USB
UOSAT-12 26 May 21:17:51 21:20:33 15° 251° (WSW) 21:23:13 437.025 FM, 437.400 FM
KITSAT 1 26 May 21:18:13 21:23:17 18° 101° (E) 21:28:21 435.175 FM
JAS-2 26 May 21:19:46 21:27:02 44° 66° (ENE) 21:34:12 435.800 - 435.900 CW/SSB, 435.910 FM
SO-67 26 May 21:28:00 21:29:24 12° 269° (W) 21:30:49 435.3500 MHz FM
STRAND 1 26 May 21:35:39 21:38:11 14° 302° (WNW) 21:40:42 ?
JAS-1B 26 May 21:44:32 21:51:38 26° 267° (W) 21:57:57 435.800 - 435.900 CW/SSB
HO-68 26 May 21:49:55 21:57:03 87° 72° (ENE) 22:04:15 435.675 MHz FM
RS-15 26 May 21:54:34 22:03:32 25° 9° (N) 22:12:12 29.354 - 29.394 USB, Beacon 29.352 USB
OPAL 26 May 22:11:59 22:16:51 43° 67° (ENE) 22:21:41 ?
Oscar 11 26 May 22:22:59 22:27:18 86° 257° (WSW) 22:31:40 145.825 FM, Beacon 2401.500 USB

Developed and maintained by Chris Peat, Heavens-Above GmbH. Please read the updated FAQ before sending e-mail. Imprint. DLR
